RWZ8795 UWKD-UUBW

Flight info

Callsign RWZ8795
Flight time 1h 7m
Altitude 34000
Route APTAR1G APTAR T787 URAGO URAGO2W
Aircraft T204/M-SDE2E3FGHIJ3J4J7RWXY/LB1

Departure

Time 2026-04-16 14:37
Airport Kazan International Airport (UWKD)

Arrival

Time 2026-04-16 15:44
Airport Zhukovsky International Airport (UUBW)
Time Latitude Longitude Altitude Speed Heading
2026-04-16 14:00 55.60651 49.29734 420 ft 0 kts 33°
2026-04-16 14:25 55.60664 49.29749 420 ft 3 kts 28°
2026-04-16 14:25 55.60689 49.29758 420 ft 4 kts 356°
2026-04-16 14:25 55.60715 49.29737 420 ft 4 kts 306°
2026-04-16 14:25 55.60733 49.29689 420 ft 5 kts 304°
2026-04-16 14:26 55.60755 49.29634 420 ft 6 kts 306°
2026-04-16 14:26 55.60786 49.29551 420 ft 10 kts 301°
2026-04-16 14:26 55.60803 49.29433 420 ft 8 kts 243°
2026-04-16 14:26 55.60764 49.29368 420 ft 7 kts 217°
2026-04-16 14:27 55.60726 49.29321 420 ft 5 kts 215°
2026-04-16 14:27 55.60698 49.29286 420 ft 4 kts 213°
2026-04-16 14:27 55.60679 49.29263 420 ft 2 kts 213°
2026-04-16 14:27 55.60661 49.29242 420 ft 4 kts 213°
2026-04-16 14:28 55.60616 49.29190 420 ft 10 kts 214°
2026-04-16 14:28 55.60581 49.29063 420 ft 14 kts 266°
2026-04-16 14:28 55.60584 49.28861 420 ft 18 kts 276°
2026-04-16 14:28 55.60601 49.28625 420 ft 18 kts 289°
2026-04-16 14:29 55.60662 49.28436 420 ft 16 kts 298°
2026-04-16 14:29 55.60722 49.28286 420 ft 13 kts 309°
2026-04-16 14:29 55.60773 49.28154 420 ft 12 kts 302°
2026-04-16 14:29 55.60817 49.28032 420 ft 11 kts 306°
2026-04-16 14:30 55.60860 49.27931 420 ft 9 kts 305°
2026-04-16 14:30 55.60893 49.27844 420 ft 7 kts 303°
2026-04-16 14:30 55.60920 49.27772 420 ft 6 kts 299°
2026-04-16 14:30 55.60946 49.27710 420 ft 8 kts 309°
2026-04-16 14:31 55.60986 49.27597 420 ft 12 kts 306°
2026-04-16 14:31 55.61044 49.27454 420 ft 16 kts 304°
2026-04-16 14:31 55.61115 49.27273 420 ft 19 kts 306°
2026-04-16 14:31 55.61200 49.27048 420 ft 24 kts 301°
2026-04-16 14:32 55.61301 49.26792 420 ft 25 kts 304°
2026-04-16 14:32 55.61402 49.26531 420 ft 25 kts 305°
2026-04-16 14:32 55.61504 49.26278 420 ft 25 kts 304°
2026-04-16 14:32 55.61604 49.26033 420 ft 23 kts 304°
2026-04-16 14:33 55.61691 49.25792 420 ft 23 kts 302°
2026-04-16 14:33 55.61777 49.25563 420 ft 21 kts 302°
2026-04-16 14:33 55.61835 49.25415 420 ft 11 kts 300°
2026-04-16 14:33 55.61841 49.25290 420 ft 9 kts 239°
2026-04-16 14:34 55.61808 49.25240 420 ft 0 kts 216°
2026-04-16 14:35 55.61798 49.25227 420 ft 4 kts 213°
2026-04-16 14:35 55.61753 49.25172 420 ft 11 kts 213°
2026-04-16 14:35 55.61667 49.25196 420 ft 14 kts 129°
2026-04-16 14:36 55.61661 49.25211 420 ft 0 kts 124°
2026-04-16 14:36 55.61647 49.25246 420 ft 21 kts 126°
2026-04-16 14:36 55.61364 49.25962 420 ft 118 kts 124°
2026-04-16 14:36 55.60759 49.27476 752 ft 167 kts 126°
2026-04-16 14:37 55.60025 49.29118 1518 ft 188 kts 130°
2026-04-16 14:37 55.59228 49.31048 2011 ft 204 kts 126°
2026-04-16 14:37 55.58427 49.33160 2480 ft 207 kts 126°
2026-04-16 14:37 55.57637 49.35242 2986 ft 209 kts 125°
2026-04-16 14:38 55.56824 49.37400 3390 ft 212 kts 125°
2026-04-16 14:38 55.55959 49.39731 4039 ft 236 kts 124°
2026-04-16 14:38 55.55072 49.42205 4817 ft 247 kts 126°
2026-04-16 14:38 55.53693 49.43911 5566 ft 251 kts 168°
2026-04-16 14:39 55.51996 49.43597 6376 ft 257 kts 204°
2026-04-16 14:39 55.50661 49.41557 7207 ft 251 kts 230°
2026-04-16 14:39 55.49542 49.39283 7937 ft 246 kts 224°
2026-04-16 14:39 55.48268 49.37271 8677 ft 247 kts 218°
2026-04-16 14:40 55.46882 49.35533 9440 ft 251 kts 212°
2026-04-16 14:40 55.45329 49.33897 10283 ft 274 kts 208°
2026-04-16 14:40 55.43659 49.32226 11100 ft 289 kts 215°
2026-04-16 14:40 55.42287 49.29608 11931 ft 296 kts 236°
2026-04-16 14:41 55.41375 49.26388 12744 ft 301 kts 250°
2026-04-16 14:41 55.40952 49.22776 13525 ft 305 kts 266°
2026-04-16 14:41 55.41033 49.19076 14301 ft 309 kts 274°
2026-04-16 14:41 55.41237 49.15301 15072 ft 311 kts 276°
2026-04-16 14:42 55.41478 49.11521 15728 ft 316 kts 276°
2026-04-16 14:42 55.41734 49.07695 16474 ft 317 kts 276°
2026-04-16 14:42 55.41987 49.03901 17206 ft 319 kts 276°
2026-04-16 14:42 55.42247 48.99992 17870 ft 323 kts 276°
2026-04-16 14:43 55.42506 48.96074 18500 ft 325 kts 276°
2026-04-16 14:43 55.42764 48.92104 19156 ft 328 kts 276°
2026-04-16 14:43 55.43020 48.88152 19741 ft 332 kts 276°
2026-04-16 14:43 55.43280 48.84103 20327 ft 336 kts 276°
2026-04-16 14:44 55.43544 48.79994 20885 ft 339 kts 276°
2026-04-16 14:44 55.43808 48.75893 21457 ft 342 kts 277°
2026-04-16 14:44 55.44078 48.71705 22005 ft 346 kts 277°
2026-04-16 14:44 55.44351 48.67490 22534 ft 349 kts 277°
2026-04-16 14:45 55.44625 48.63281 23068 ft 352 kts 277°
2026-04-16 14:45 55.44907 48.58968 23601 ft 355 kts 277°
2026-04-16 14:45 55.45189 48.54678 24102 ft 358 kts 277°
2026-04-16 14:45 55.45425 48.50298 24601 ft 361 kts 274°
2026-04-16 14:46 55.45567 48.45942 25126 ft 362 kts 274°
2026-04-16 14:46 55.45697 48.41509 25652 ft 364 kts 274°
2026-04-16 14:46 55.45825 48.37077 26108 ft 367 kts 274°
2026-04-16 14:46 55.45957 48.32537 26585 ft 369 kts 273°
2026-04-16 14:47 55.46088 48.28070 27139 ft 368 kts 273°
2026-04-16 14:47 55.46218 48.23594 27709 ft 367 kts 273°
2026-04-16 14:47 55.46348 48.19148 28257 ft 366 kts 274°
2026-04-16 14:47 55.46481 48.14681 28816 ft 365 kts 274°
2026-04-16 14:48 55.46616 48.10247 29367 ft 364 kts 274°
2026-04-16 14:48 55.46750 48.05851 29922 ft 362 kts 274°
2026-04-16 14:48 55.46888 48.01420 30473 ft 360 kts 274°
2026-04-16 14:48 55.47024 47.97065 31005 ft 359 kts 275°
2026-04-16 14:49 55.47162 47.92688 31508 ft 358 kts 275°
2026-04-16 14:49 55.47306 47.88322 31988 ft 357 kts 275°
2026-04-16 14:49 55.47449 47.84035 32460 ft 356 kts 275°
2026-04-16 14:49 55.47594 47.79708 32938 ft 354 kts 275°
2026-04-16 14:50 55.47739 47.75394 33402 ft 353 kts 275°
2026-04-16 14:50 55.47883 47.71072 33854 ft 352 kts 275°
2026-04-16 14:50 55.48027 47.66795 34215 ft 353 kts 275°
2026-04-16 14:50 55.48173 47.62495 34200 ft 354 kts 275°
2026-04-16 14:51 55.48471 47.53920 34221 ft 349 kts 275°
2026-04-16 14:51 55.48770 47.45441 34226 ft 348 kts 275°
2026-04-16 14:53 55.49930 47.14326 34320 ft 427 kts 274°
2026-04-16 14:53 55.50105 47.09047 34254 ft 439 kts 273°
2026-04-16 14:54 55.50364 46.98287 34226 ft 439 kts 273°
2026-04-16 14:54 55.50612 46.87629 34230 ft 437 kts 273°
2026-04-16 14:55 55.50870 46.76931 34221 ft 437 kts 273°
2026-04-16 14:55 55.51137 46.66288 34224 ft 436 kts 273°
2026-04-16 14:56 55.51411 46.55640 34223 ft 437 kts 273°
2026-04-16 14:56 55.51693 46.44978 34221 ft 437 kts 274°
2026-04-16 14:57 55.52066 46.34368 34218 ft 437 kts 274°
2026-04-16 14:57 55.52405 46.23651 34213 ft 438 kts 273°
2026-04-16 14:58 55.52873 46.07607 34213 ft 438 kts 274°
2026-04-16 14:59 55.53192 45.96899 34198 ft 439 kts 274°
2026-04-16 14:59 55.53526 45.86191 34197 ft 436 kts 274°
2026-04-16 15:00 55.53863 45.75545 34189 ft 435 kts 274°
2026-04-16 15:00 55.54198 45.64913 34204 ft 436 kts 274°
2026-04-16 15:01 55.54547 45.54285 34198 ft 437 kts 274°
2026-04-16 15:01 55.54905 45.43659 34217 ft 436 kts 275°
2026-04-16 15:02 55.55280 45.32964 34193 ft 436 kts 274°
2026-04-16 15:02 55.55664 45.22302 34179 ft 436 kts 274°
2026-04-16 15:03 55.56054 45.11628 34189 ft 436 kts 275°
2026-04-16 15:03 55.56456 45.00903 34186 ft 437 kts 275°
2026-04-16 15:04 55.56863 44.90272 34187 ft 436 kts 275°
2026-04-16 15:04 55.57190 44.79588 34178 ft 437 kts 274°
2026-04-16 15:05 55.57410 44.68912 34177 ft 436 kts 274°
2026-04-16 15:05 55.57619 44.58297 34180 ft 435 kts 274°
2026-04-16 15:06 55.57837 44.47676 34184 ft 436 kts 274°
2026-04-16 15:06 55.58063 44.37033 34183 ft 436 kts 274°
2026-04-16 15:07 55.58297 44.26329 34179 ft 436 kts 273°
2026-04-16 15:07 55.58538 44.15677 34170 ft 436 kts 274°
2026-04-16 15:08 55.58790 44.05036 34154 ft 436 kts 274°
2026-04-16 15:08 55.59054 43.94338 34156 ft 436 kts 274°
2026-04-16 15:09 55.59331 43.83684 34155 ft 437 kts 274°
2026-04-16 15:09 55.59531 43.72964 34153 ft 438 kts 271°
2026-04-16 15:10 55.59462 43.62229 34157 ft 439 kts 271°
2026-04-16 15:10 55.59357 43.51528 34153 ft 439 kts 271°
2026-04-16 15:11 55.59252 43.40792 34159 ft 439 kts 271°
2026-04-16 15:11 55.59156 43.30083 34166 ft 439 kts 270°
2026-04-16 15:12 55.59068 43.19295 34163 ft 439 kts 270°
2026-04-16 15:12 55.58987 43.08524 34161 ft 439 kts 270°
2026-04-16 15:13 55.58915 42.97817 34153 ft 439 kts 270°
2026-04-16 15:13 55.58854 42.87035 34156 ft 441 kts 270°
2026-04-16 15:14 55.58804 42.76250 34160 ft 442 kts 271°
2026-04-16 15:14 55.58764 42.65443 34153 ft 442 kts 271°
2026-04-16 15:15 55.58731 42.54573 34157 ft 442 kts 271°
2026-04-16 15:15 55.58712 42.43750 34155 ft 442 kts 271°
2026-04-16 15:16 55.58700 42.32973 34154 ft 442 kts 270°
2026-04-16 15:16 55.58695 42.22138 34151 ft 443 kts 270°
2026-04-16 15:17 55.58700 42.11293 34140 ft 443 kts 270°
2026-04-16 15:17 55.58710 42.00445 34134 ft 443 kts 270°
2026-04-16 15:17 55.58718 41.95013 33961 ft 444 kts 270°
2026-04-16 15:18 55.58733 41.89515 33657 ft 442 kts 270°
2026-04-16 15:18 55.58750 41.84209 32979 ft 433 kts 270°
2026-04-16 15:18 55.58734 41.78975 31984 ft 434 kts 268°
2026-04-16 15:18 55.58646 41.73608 31542 ft 438 kts 268°
2026-04-16 15:19 55.58563 41.68226 31106 ft 439 kts 268°
2026-04-16 15:19 55.58482 41.62853 30859 ft 437 kts 268°
2026-04-16 15:19 55.58401 41.57495 30777 ft 438 kts 268°
2026-04-16 15:19 55.58321 41.52156 30649 ft 440 kts 268°
2026-04-16 15:20 55.58243 41.46741 30405 ft 442 kts 268°
2026-04-16 15:20 55.58166 41.41302 30007 ft 443 kts 268°
2026-04-16 15:20 55.58091 41.35890 29616 ft 443 kts 268°
2026-04-16 15:20 55.58021 41.30469 29165 ft 444 kts 267°
2026-04-16 15:21 55.57949 41.25029 28638 ft 445 kts 267°
2026-04-16 15:21 55.57855 41.19616 28139 ft 446 kts 266°
2026-04-16 15:21 55.57743 41.14101 27660 ft 447 kts 266°
2026-04-16 15:21 55.57626 41.08666 27187 ft 448 kts 266°
2026-04-16 15:22 55.57506 41.03186 26711 ft 450 kts 266°
2026-04-16 15:22 55.57384 40.97695 26231 ft 450 kts 266°
2026-04-16 15:22 55.57265 40.92200 25753 ft 451 kts 266°
2026-04-16 15:22 55.57149 40.86698 25271 ft 452 kts 266°
2026-04-16 15:23 55.57035 40.81097 24779 ft 453 kts 266°
2026-04-16 15:23 55.56924 40.75606 24294 ft 454 kts 266°
2026-04-16 15:23 55.56811 40.70070 23714 ft 445 kts 266°
2026-04-16 15:23 55.56710 40.64789 23085 ft 428 kts 266°
2026-04-16 15:24 55.56611 40.59587 22442 ft 425 kts 266°
2026-04-16 15:24 55.56513 40.54366 21841 ft 428 kts 266°
2026-04-16 15:24 55.56415 40.49092 21276 ft 431 kts 266°
2026-04-16 15:24 55.56312 40.43803 20704 ft 434 kts 265°
2026-04-16 15:25 55.56154 40.38542 20137 ft 436 kts 265°
2026-04-16 15:25 55.56010 40.33304 19423 ft 410 kts 264°
2026-04-16 15:25 55.55869 40.28492 18662 ft 379 kts 264°
2026-04-16 15:25 55.55736 40.24018 17947 ft 355 kts 264°
2026-04-16 15:26 55.55610 40.19768 17248 ft 343 kts 264°
2026-04-16 15:26 55.55484 40.15594 16595 ft 340 kts 264°
2026-04-16 15:26 55.55360 40.11443 15962 ft 341 kts 264°
2026-04-16 15:26 55.55239 40.07261 15432 ft 343 kts 264°
2026-04-16 15:27 55.55123 40.03097 15088 ft 340 kts 264°
2026-04-16 15:27 55.55049 39.98962 14946 ft 342 kts 270°
2026-04-16 15:27 55.55266 39.94810 14557 ft 342 kts 272°
2026-04-16 15:27 55.55492 39.90612 14182 ft 341 kts 273°
2026-04-16 15:28 55.55730 39.86492 13802 ft 338 kts 273°
2026-04-16 15:28 55.55958 39.82423 13434 ft 336 kts 273°
2026-04-16 15:28 55.56181 39.78322 13049 ft 334 kts 272°
2026-04-16 15:28 55.56400 39.74286 12678 ft 332 kts 273°
2026-04-16 15:29 55.56617 39.70249 12299 ft 329 kts 273°
2026-04-16 15:29 55.56819 39.66279 12072 ft 325 kts 272°
2026-04-16 15:29 55.57028 39.62281 12133 ft 323 kts 272°
2026-04-16 15:29 55.57232 39.58320 12101 ft 328 kts 273°
2026-04-16 15:30 55.57437 39.54327 12129 ft 328 kts 272°
2026-04-16 15:30 55.57476 39.50310 12030 ft 326 kts 261°
2026-04-16 15:30 55.57100 39.46455 11504 ft 321 kts 257°
2026-04-16 15:30 55.56693 39.42597 10877 ft 319 kts 256°
2026-04-16 15:31 55.56267 39.38761 10238 ft 317 kts 257°
2026-04-16 15:31 55.55867 39.35002 9626 ft 315 kts 256°
2026-04-16 15:31 55.55463 39.31186 8983 ft 313 kts 256°
2026-04-16 15:31 55.55074 39.27418 8355 ft 311 kts 256°
2026-04-16 15:32 55.54695 39.23733 7738 ft 309 kts 256°
2026-04-16 15:32 55.54304 39.19981 7115 ft 307 kts 257°
2026-04-16 15:32 55.53922 39.16315 6488 ft 305 kts 256°
2026-04-16 15:32 55.53550 39.12720 5862 ft 287 kts 256°
2026-04-16 15:33 55.53215 39.09483 6034 ft 267 kts 256°
2026-04-16 15:33 55.52875 39.06233 5991 ft 271 kts 256°
2026-04-16 15:33 55.52537 39.02982 5972 ft 270 kts 256°
2026-04-16 15:33 55.52194 38.99690 5982 ft 271 kts 256°
2026-04-16 15:34 55.51851 38.96424 5976 ft 271 kts 256°
2026-04-16 15:34 55.51513 38.93186 5977 ft 271 kts 256°
2026-04-16 15:34 55.51169 38.89908 5976 ft 270 kts 256°
2026-04-16 15:34 55.50826 38.86663 5978 ft 270 kts 256°
2026-04-16 15:35 55.50483 38.83408 5983 ft 269 kts 256°
2026-04-16 15:35 55.49880 38.80310 5795 ft 268 kts 237°
2026-04-16 15:35 55.48871 38.77624 5464 ft 263 kts 233°
2026-04-16 15:35 55.47837 38.74981 5175 ft 260 kts 232°
2026-04-16 15:36 55.46820 38.72399 4922 ft 258 kts 233°
2026-04-16 15:36 55.45828 38.69850 4551 ft 246 kts 233°
2026-04-16 15:36 55.44898 38.67441 4075 ft 233 kts 234°
2026-04-16 15:36 55.43994 38.65096 3736 ft 231 kts 234°
2026-04-16 15:37 55.43085 38.62732 3361 ft 234 kts 234°
2026-04-16 15:37 55.42179 38.60366 3091 ft 233 kts 234°
2026-04-16 15:37 55.41282 38.58023 2814 ft 232 kts 234°
2026-04-16 15:37 55.40390 38.55688 2540 ft 231 kts 234°
2026-04-16 15:38 55.39520 38.53307 2256 ft 232 kts 243°
2026-04-16 15:38 55.39192 38.50576 2092 ft 221 kts 268°
2026-04-16 15:38 55.39400 38.48008 1954 ft 205 kts 284°
2026-04-16 15:38 55.40007 38.45910 1943 ft 190 kts 303°
2026-04-16 15:39 55.40786 38.44036 2070 ft 190 kts 306°
2026-04-16 15:39 55.41621 38.42199 1990 ft 192 kts 308°
2026-04-16 15:39 55.42482 38.40403 1989 ft 192 kts 309°
2026-04-16 15:39 55.43356 38.38629 1989 ft 192 kts 310°
2026-04-16 15:40 55.44241 38.36862 1987 ft 192 kts 310°
2026-04-16 15:40 55.45124 38.35110 1987 ft 193 kts 311°
2026-04-16 15:40 55.46009 38.33335 1985 ft 192 kts 309°
2026-04-16 15:40 55.46866 38.31617 2005 ft 181 kts 310°
2026-04-16 15:41 55.47683 38.29999 1955 ft 173 kts 310°
2026-04-16 15:41 55.48475 38.28435 1944 ft 173 kts 310°
2026-04-16 15:41 55.49280 38.26845 1693 ft 169 kts 310°
2026-04-16 15:41 55.50042 38.25341 1464 ft 161 kts 310°
2026-04-16 15:42 55.50779 38.23887 1253 ft 158 kts 310°
2026-04-16 15:42 55.51506 38.22451 1043 ft 155 kts 310°
2026-04-16 15:42 55.52202 38.21078 836 ft 146 kts 311°
2026-04-16 15:42 55.52881 38.19774 630 ft 147 kts 311°
2026-04-16 15:43 55.53572 38.18406 477 ft 150 kts 311°
2026-04-16 15:43 55.54233 38.17091 385 ft 134 kts 312°
2026-04-16 15:43 55.54650 38.16243 383 ft 63 kts 309°
2026-04-16 15:43 55.54898 38.15743 384 ft 50 kts 312°
2026-04-16 15:44 55.55000 38.15472 383 ft 15 kts 265°
2026-04-16 15:44 55.54939 38.15328 383 ft 11 kts 223°
2026-04-16 15:44 55.54935 38.15322 383 ft 0 kts 224°
2026-04-16 15:45 55.54935 38.15321 383 ft 0 kts 224°
2026-04-16 15:45 55.54916 38.15290 383 ft 5 kts 232°
2026-04-16 15:46 55.54903 38.15240 383 ft 3 kts 249°
2026-04-16 15:46 55.54901 38.15203 383 ft 2 kts 283°
2026-04-16 15:46 55.54907 38.15179 383 ft 1 kts 300°
2026-04-16 15:46 55.54914 38.15161 383 ft 2 kts 304°
2026-04-16 15:47 55.54949 38.15083 383 ft 14 kts 310°
2026-04-16 15:47 55.55025 38.14930 383 ft 18 kts 310°
2026-04-16 15:47 55.55114 38.14754 383 ft 18 kts 312°
2026-04-16 15:47 55.55197 38.14587 383 ft 17 kts 311°
2026-04-16 15:48 55.55275 38.14431 383 ft 16 kts 310°
2026-04-16 15:48 55.55349 38.14281 383 ft 15 kts 308°
2026-04-16 15:48 55.55416 38.14146 383 ft 13 kts 316°
2026-04-16 15:48 55.55477 38.14028 383 ft 12 kts 315°
2026-04-16 15:49 55.55532 38.13925 383 ft 11 kts 307°
2026-04-16 15:49 55.55579 38.13832 383 ft 9 kts 311°
2026-04-16 15:49 55.55624 38.13742 383 ft 9 kts 311°
2026-04-16 15:49 55.55664 38.13657 383 ft 8 kts 309°
2026-04-16 15:50 55.55701 38.13582 383 ft 8 kts 310°
2026-04-16 15:50 55.55748 38.13493 383 ft 12 kts 317°
2026-04-16 15:50 55.55817 38.13356 383 ft 17 kts 310°
2026-04-16 15:50 55.55897 38.13197 383 ft 16 kts 314°
2026-04-16 15:51 55.55969 38.13052 383 ft 14 kts 316°
2026-04-16 15:51 55.56032 38.12931 383 ft 12 kts 313°
2026-04-16 15:51 55.56083 38.12808 383 ft 11 kts 295°
2026-04-16 15:51 55.56123 38.12692 383 ft 10 kts 306°
2026-04-16 15:52 55.56166 38.12597 383 ft 9 kts 307°
2026-04-16 15:52 55.56206 38.12514 383 ft 8 kts 316°
2026-04-16 15:52 55.56243 38.12446 383 ft 7 kts 307°
2026-04-16 15:52 55.56273 38.12379 383 ft 6 kts 306°
2026-04-16 15:53 55.56295 38.12320 383 ft 5 kts 279°
2026-04-16 15:53 55.56283 38.12268 383 ft 4 kts 233°
2026-04-16 15:53 55.56264 38.12230 383 ft 0 kts 223°